FJI996 KEYW-MMUN

Flight info

Callsign FJI996
Flight time 1h 34m
Altitude 24000
Route EYW DCT CANOA UB879 CUN
Aircraft B38M/M-SDE1FGHILORVWXY/HB1

Departure

Time 2026-05-06 00:11
Airport Key West International Airport (KEYW)

Arrival

Time 2026-05-06 01:45
Airport Cancún International Airport (MMUN)
Time Latitude Longitude Altitude Speed Heading
2026-05-05 23:27 24.55477 -81.75552 21 ft 0 kts 230°
2026-05-06 00:04 24.55476 -81.75553 14 ft 1 kts 230°
2026-05-06 00:04 24.55477 -81.75578 21 ft 6 kts 299°
2026-05-06 00:05 24.55500 -81.75592 22 ft 8 kts 341°
2026-05-06 00:05 24.55526 -81.75631 23 ft 12 kts 288°
2026-05-06 00:05 24.55529 -81.75706 26 ft 10 kts 269°
2026-05-06 00:06 24.55529 -81.75749 26 ft 7 kts 270°
2026-05-06 00:06 24.55529 -81.75810 22 ft 9 kts 270°
2026-05-06 00:06 24.55527 -81.75893 22 ft 13 kts 269°
2026-05-06 00:06 24.55526 -81.76007 17 ft 17 kts 269°
2026-05-06 00:07 24.55526 -81.76145 15 ft 19 kts 269°
2026-05-06 00:07 24.55524 -81.76267 15 ft 8 kts 267°
2026-05-06 00:07 24.55524 -81.76295 15 ft 4 kts 271°
2026-05-06 00:07 24.55524 -81.76336 15 ft 7 kts 269°
2026-05-06 00:08 24.55522 -81.76394 15 ft 9 kts 268°
2026-05-06 00:08 24.55522 -81.76474 14 ft 12 kts 270°
2026-05-06 00:08 24.55522 -81.76544 14 ft 8 kts 270°
2026-05-06 00:08 24.55523 -81.76608 15 ft 9 kts 277°
2026-05-06 00:09 24.55529 -81.76628 16 ft 0 kts 297°
2026-05-06 00:09 24.55573 -81.76658 18 ft 12 kts 343°
2026-05-06 00:09 24.55605 -81.76642 16 ft 2 kts 87°
2026-05-06 00:10 24.55606 -81.76602 16 ft 12 kts 89°
2026-05-06 00:10 24.55609 -81.76325 14 ft 77 kts 89°
2026-05-06 00:10 24.55621 -81.75443 24 ft 152 kts 88°
2026-05-06 00:10 24.55688 -81.74152 227 ft 179 kts 82°
2026-05-06 00:11 24.56248 -81.72988 484 ft 177 kts 32°
2026-05-06 00:11 24.57434 -81.72671 811 ft 181 kts 346°
2026-05-06 00:11 24.58506 -81.73383 1485 ft 188 kts 314°
2026-05-06 00:11 24.59223 -81.74572 2289 ft 194 kts 289°
2026-05-06 00:12 24.59279 -81.76145 2777 ft 220 kts 259°
2026-05-06 00:12 24.58982 -81.77823 3524 ft 235 kts 261°
2026-05-06 00:12 24.58935 -81.79677 4233 ft 250 kts 278°
2026-05-06 00:12 24.58911 -81.81625 5004 ft 266 kts 253°
2026-05-06 00:13 24.57855 -81.83269 6018 ft 269 kts 221°
2026-05-06 00:13 24.56424 -81.84633 6843 ft 276 kts 235°
2026-05-06 00:13 24.55576 -81.86499 7807 ft 273 kts 248°
2026-05-06 00:13 24.54724 -81.88394 8641 ft 280 kts 245°
2026-05-06 00:14 24.53837 -81.90306 9561 ft 282 kts 245°
2026-05-06 00:14 24.52940 -81.92241 10401 ft 286 kts 245°
2026-05-06 00:14 24.52031 -81.94201 11197 ft 289 kts 245°
2026-05-06 00:14 24.51113 -81.96180 11973 ft 292 kts 245°
2026-05-06 00:15 24.50184 -81.98181 12750 ft 296 kts 245°
2026-05-06 00:15 24.49243 -82.00205 13505 ft 300 kts 246°
2026-05-06 00:15 24.48291 -82.02256 14207 ft 303 kts 246°
2026-05-06 00:15 24.47328 -82.04328 14858 ft 306 kts 246°
2026-05-06 00:16 24.46366 -82.06396 15502 ft 310 kts 247°
2026-05-06 00:16 24.45379 -82.08516 16147 ft 313 kts 247°
2026-05-06 00:16 24.44383 -82.10654 16774 ft 316 kts 247°
2026-05-06 00:16 24.43375 -82.12820 17397 ft 320 kts 248°
2026-05-06 00:17 24.42355 -82.15007 18004 ft 323 kts 248°
2026-05-06 00:17 24.41328 -82.17210 18566 ft 326 kts 248°
2026-05-06 00:17 24.40289 -82.19437 19088 ft 329 kts 248°
2026-05-06 00:17 24.39244 -82.21674 19608 ft 331 kts 248°
2026-05-06 00:18 24.38191 -82.23931 20135 ft 333 kts 248°
2026-05-06 00:18 24.37129 -82.26203 20636 ft 336 kts 248°
2026-05-06 00:18 24.36061 -82.28488 21135 ft 338 kts 248°
2026-05-06 00:18 24.34984 -82.30791 21630 ft 340 kts 248°
2026-05-06 00:19 24.33916 -82.33074 22108 ft 343 kts 248°
2026-05-06 00:19 24.32822 -82.35412 22582 ft 345 kts 248°
2026-05-06 00:19 24.31722 -82.37760 23045 ft 347 kts 248°
2026-05-06 00:19 24.30616 -82.40121 23500 ft 350 kts 248°
2026-05-06 00:20 24.29497 -82.42508 23849 ft 353 kts 248°
2026-05-06 00:20 24.28372 -82.44906 24225 ft 355 kts 248°
2026-05-06 00:20 24.27230 -82.47342 24386 ft 365 kts 248°
2026-05-06 00:20 24.26045 -82.49865 24391 ft 379 kts 248°
2026-05-06 00:21 24.24818 -82.52477 24419 ft 392 kts 248°
2026-05-06 00:21 24.23551 -82.55173 24425 ft 404 kts 247°
2026-05-06 00:21 24.22255 -82.57927 24716 ft 406 kts 247°
2026-05-06 00:21 24.20953 -82.60695 24936 ft 410 kts 247°
2026-05-06 00:22 24.19649 -82.63464 24979 ft 409 kts 247°
2026-05-06 00:22 24.18342 -82.66237 24989 ft 409 kts 247°
2026-05-06 00:22 24.17036 -82.69008 24993 ft 409 kts 247°
2026-05-06 00:22 24.15733 -82.71771 25000 ft 409 kts 247°
2026-05-06 00:23 24.14428 -82.74537 24998 ft 409 kts 247°
2026-05-06 00:23 24.13123 -82.77299 24998 ft 409 kts 247°
2026-05-06 00:23 24.11819 -82.80058 24996 ft 409 kts 247°
2026-05-06 00:23 24.10511 -82.82826 24999 ft 409 kts 247°
2026-05-06 00:24 24.09202 -82.85594 24997 ft 409 kts 247°
2026-05-06 00:24 24.07911 -82.88321 24999 ft 409 kts 247°
2026-05-06 00:24 24.06603 -82.91083 24993 ft 409 kts 247°
2026-05-06 00:24 24.05295 -82.93844 24996 ft 409 kts 247°
2026-05-06 00:25 24.03984 -82.96609 25000 ft 409 kts 247°
2026-05-06 00:25 24.02675 -82.99369 24999 ft 409 kts 247°
2026-05-06 00:25 24.01366 -83.02129 24996 ft 409 kts 246°
2026-05-06 00:25 24.00027 -83.04886 24992 ft 411 kts 242°
2026-05-06 00:26 23.98347 -83.07434 25014 ft 414 kts 238°
2026-05-06 00:26 23.96623 -83.09972 24993 ft 414 kts 238°
2026-05-06 00:26 23.94908 -83.12499 24996 ft 414 kts 238°
2026-05-06 00:26 23.93188 -83.15030 24993 ft 414 kts 238°
2026-05-06 00:27 23.91473 -83.17552 24983 ft 415 kts 238°
2026-05-06 00:27 23.89749 -83.20086 24998 ft 414 kts 238°
2026-05-06 00:27 23.88030 -83.22612 24997 ft 414 kts 238°
2026-05-06 00:27 23.86310 -83.25137 24997 ft 414 kts 238°
2026-05-06 00:28 23.84583 -83.27671 24995 ft 414 kts 238°
2026-05-06 00:28 23.82865 -83.30192 24998 ft 415 kts 238°
2026-05-06 00:28 23.81166 -83.32683 24995 ft 415 kts 238°
2026-05-06 00:28 23.79440 -83.35212 24995 ft 415 kts 238°
2026-05-06 00:29 23.77716 -83.37737 24996 ft 415 kts 238°
2026-05-06 00:29 23.75988 -83.40266 24996 ft 415 kts 238°
2026-05-06 00:29 23.74266 -83.42786 24995 ft 415 kts 238°
2026-05-06 00:29 23.72539 -83.45312 24996 ft 415 kts 238°
2026-05-06 00:30 23.70812 -83.47836 24991 ft 415 kts 238°
2026-05-06 00:30 23.69089 -83.50354 24993 ft 415 kts 238°
2026-05-06 00:30 23.67358 -83.52881 24995 ft 416 kts 238°
2026-05-06 00:30 23.65610 -83.55434 24993 ft 425 kts 237°
2026-05-06 00:31 23.63824 -83.58040 24992 ft 433 kts 237°
2026-05-06 00:31 23.62001 -83.60695 24992 ft 441 kts 237°
2026-05-06 00:31 23.60149 -83.63393 24980 ft 448 kts 237°
2026-05-06 00:31 23.58265 -83.66134 24981 ft 454 kts 237°
2026-05-06 00:32 23.56364 -83.68900 24981 ft 459 kts 237°
2026-05-06 00:32 23.54436 -83.71703 24980 ft 464 kts 237°
2026-05-06 00:32 23.52500 -83.74517 24989 ft 464 kts 237°
2026-05-06 00:32 23.50561 -83.77334 24990 ft 464 kts 237°
2026-05-06 00:33 23.48624 -83.80145 24991 ft 465 kts 237°
2026-05-06 00:33 23.46708 -83.82924 24990 ft 465 kts 237°
2026-05-06 00:33 23.44766 -83.85741 24989 ft 465 kts 237°
2026-05-06 00:33 23.42825 -83.88554 24989 ft 465 kts 237°
2026-05-06 00:34 23.40881 -83.91369 24984 ft 465 kts 237°
2026-05-06 00:34 23.38938 -83.94183 24986 ft 465 kts 237°
2026-05-06 00:34 23.36987 -83.97006 24986 ft 466 kts 237°
2026-05-06 00:34 23.35038 -83.99823 24987 ft 466 kts 237°
2026-05-06 00:35 23.33091 -84.02637 24985 ft 466 kts 237°
2026-05-06 00:35 23.31143 -84.05451 24982 ft 466 kts 237°
2026-05-06 00:35 23.29188 -84.08274 24982 ft 466 kts 237°
2026-05-06 00:35 23.27242 -84.11081 24983 ft 466 kts 237°
2026-05-06 00:36 23.25294 -84.13891 24984 ft 466 kts 237°
2026-05-06 00:36 23.23357 -84.16681 24983 ft 466 kts 237°
2026-05-06 00:36 23.21404 -84.19496 24984 ft 466 kts 237°
2026-05-06 00:36 23.19452 -84.22306 24984 ft 466 kts 237°
2026-05-06 00:37 23.17494 -84.25123 24984 ft 466 kts 237°
2026-05-06 00:37 23.15539 -84.27935 24984 ft 466 kts 237°
2026-05-06 00:37 23.13582 -84.30747 24978 ft 467 kts 237°
2026-05-06 00:37 23.11621 -84.33564 24982 ft 467 kts 237°
2026-05-06 00:38 23.09660 -84.36380 24984 ft 468 kts 237°
2026-05-06 00:38 23.07697 -84.39197 24983 ft 468 kts 237°
2026-05-06 00:38 23.05734 -84.42013 24983 ft 468 kts 237°
2026-05-06 00:38 23.03770 -84.44828 24984 ft 468 kts 237°
2026-05-06 00:39 23.01803 -84.47646 24984 ft 468 kts 237°
2026-05-06 00:39 22.99838 -84.50459 24978 ft 468 kts 237°
2026-05-06 00:39 22.97872 -84.53275 24982 ft 467 kts 237°
2026-05-06 00:39 22.95904 -84.56088 24984 ft 467 kts 237°
2026-05-06 00:40 22.93937 -84.58900 24986 ft 467 kts 237°
2026-05-06 00:40 22.91969 -84.61711 24983 ft 467 kts 237°
2026-05-06 00:40 22.90004 -84.64518 24985 ft 467 kts 237°
2026-05-06 00:40 22.88061 -84.67290 24979 ft 467 kts 236°
2026-05-06 00:41 22.86097 -84.70092 24974 ft 467 kts 236°
2026-05-06 00:41 22.84131 -84.72895 24978 ft 467 kts 236°
2026-05-06 00:41 22.82174 -84.75684 24979 ft 467 kts 236°
2026-05-06 00:41 22.80210 -84.78481 24977 ft 467 kts 236°
2026-05-06 00:42 22.78241 -84.81283 24977 ft 467 kts 236°
2026-05-06 00:42 22.76274 -84.84082 24976 ft 467 kts 236°
2026-05-06 00:42 22.74304 -84.86884 24975 ft 467 kts 236°
2026-05-06 00:42 22.72333 -84.89685 24975 ft 467 kts 236°
2026-05-06 00:43 22.71028 -84.91538 24975 ft 467 kts 236°
2026-05-06 00:43 22.69062 -84.94329 24970 ft 467 kts 236°
2026-05-06 00:43 22.67095 -84.97121 24972 ft 468 kts 236°
2026-05-06 00:43 22.65124 -84.99917 24972 ft 468 kts 236°
2026-05-06 00:44 22.63145 -85.02723 24971 ft 468 kts 236°
2026-05-06 00:44 22.61172 -85.05521 24968 ft 468 kts 236°
2026-05-06 00:44 22.59207 -85.08349 24971 ft 469 kts 236°
2026-05-06 00:44 22.57247 -85.11167 24973 ft 470 kts 236°
2026-05-06 00:45 22.55301 -85.13963 24972 ft 470 kts 236°
2026-05-06 00:45 22.53337 -85.16783 24972 ft 470 kts 236°
2026-05-06 00:45 22.51346 -85.19640 24972 ft 470 kts 236°
2026-05-06 00:45 22.49376 -85.22465 24972 ft 470 kts 236°
2026-05-06 00:46 22.47433 -85.25249 24970 ft 470 kts 236°
2026-05-06 00:46 22.45439 -85.28106 24969 ft 470 kts 236°
2026-05-06 00:46 22.43496 -85.30888 24970 ft 470 kts 236°
2026-05-06 00:46 22.41530 -85.33701 24970 ft 470 kts 236°
2026-05-06 00:47 22.39557 -85.36523 24971 ft 470 kts 236°
2026-05-06 00:47 22.37588 -85.39337 24965 ft 470 kts 236°
2026-05-06 00:47 22.35616 -85.42155 24969 ft 470 kts 236°
2026-05-06 00:47 22.33641 -85.44974 24966 ft 471 kts 236°
2026-05-06 00:48 22.31662 -85.47799 24970 ft 472 kts 236°
2026-05-06 00:48 22.29680 -85.50626 24970 ft 472 kts 236°
2026-05-06 00:48 22.27696 -85.53455 24970 ft 472 kts 236°
2026-05-06 00:48 22.25716 -85.56278 24967 ft 472 kts 236°
2026-05-06 00:49 22.23737 -85.59103 24969 ft 472 kts 236°
2026-05-06 00:49 22.21759 -85.61930 24969 ft 472 kts 236°
2026-05-06 00:49 22.19781 -85.64758 24968 ft 472 kts 236°
2026-05-06 00:49 22.17799 -85.67588 24967 ft 472 kts 236°
2026-05-06 00:50 22.15821 -85.70411 24965 ft 472 kts 236°
2026-05-06 00:50 22.13842 -85.73235 24963 ft 472 kts 236°
2026-05-06 00:50 22.11861 -85.76060 24964 ft 472 kts 236°
2026-05-06 00:50 22.09878 -85.78885 24964 ft 472 kts 236°
2026-05-06 00:51 22.07893 -85.81714 24964 ft 472 kts 236°
2026-05-06 00:51 22.05935 -85.84501 24961 ft 472 kts 236°
2026-05-06 00:51 22.03952 -85.87323 24964 ft 473 kts 236°
2026-05-06 00:51 22.01966 -85.90146 24958 ft 473 kts 236°
2026-05-06 00:52 21.99979 -85.92970 24956 ft 473 kts 236°
2026-05-06 00:52 21.97991 -85.95795 24956 ft 473 kts 236°
2026-05-06 00:52 21.95912 -85.98537 24944 ft 475 kts 227°
2026-05-06 00:52 21.93414 -86.00883 24966 ft 477 kts 224°
2026-05-06 00:53 21.90964 -86.03203 24966 ft 459 kts 224°
2026-05-06 00:53 21.88616 -86.05425 24989 ft 441 kts 224°
2026-05-06 00:53 21.86353 -86.07558 24988 ft 425 kts 224°
2026-05-06 00:53 21.84167 -86.09617 24719 ft 410 kts 224°
2026-05-06 00:54 21.82040 -86.11619 24200 ft 403 kts 224°
2026-05-06 00:54 21.79947 -86.13588 23655 ft 396 kts 224°
2026-05-06 00:54 21.77886 -86.15525 23045 ft 390 kts 224°
2026-05-06 00:54 21.75859 -86.17430 22478 ft 384 kts 224°
2026-05-06 00:55 21.73863 -86.19305 22036 ft 379 kts 224°
2026-05-06 00:55 21.71892 -86.21156 21852 ft 371 kts 224°
2026-05-06 00:55 21.69965 -86.22966 21581 ft 366 kts 224°
2026-05-06 00:55 21.68076 -86.24739 21187 ft 365 kts 224°
2026-05-06 00:56 21.66167 -86.26529 20820 ft 363 kts 224°
2026-05-06 00:56 21.64269 -86.28309 20454 ft 361 kts 224°
2026-05-06 00:56 21.62375 -86.30086 20094 ft 360 kts 224°
2026-05-06 00:56 21.60497 -86.31845 19956 ft 358 kts 224°
2026-05-06 00:57 21.58601 -86.33596 19956 ft 361 kts 219°
2026-05-06 00:57 21.56409 -86.34925 19937 ft 364 kts 202°
2026-05-06 00:57 21.53948 -86.35568 19956 ft 366 kts 186°
2026-05-06 00:57 21.51413 -86.35517 19954 ft 367 kts 171°
2026-05-06 00:58 21.48956 -86.34820 19946 ft 366 kts 156°
2026-05-06 00:58 21.46698 -86.33550 19962 ft 366 kts 148°
2026-05-06 00:58 21.44538 -86.32102 19958 ft 366 kts 145°
2026-05-06 00:58 21.42426 -86.30575 19956 ft 366 kts 143°
2026-05-06 00:59 21.40347 -86.29006 19954 ft 366 kts 143°
2026-05-06 00:59 21.38278 -86.27411 19953 ft 366 kts 142°
2026-05-06 00:59 21.36220 -86.25807 19955 ft 366 kts 142°
2026-05-06 00:59 21.34166 -86.24194 19954 ft 366 kts 142°
2026-05-06 01:00 21.32116 -86.22579 19953 ft 365 kts 142°
2026-05-06 01:00 21.30072 -86.20968 19955 ft 365 kts 142°
2026-05-06 01:00 21.28047 -86.19371 19955 ft 365 kts 142°
2026-05-06 01:00 21.25995 -86.17753 19963 ft 366 kts 142°
2026-05-06 01:01 21.23946 -86.16138 19958 ft 366 kts 142°
2026-05-06 01:01 21.21890 -86.14518 19958 ft 366 kts 142°
2026-05-06 01:01 21.19837 -86.12900 19956 ft 366 kts 142°
2026-05-06 01:01 21.17782 -86.11282 19956 ft 366 kts 142°
2026-05-06 01:02 21.15729 -86.09667 19957 ft 366 kts 142°
2026-05-06 01:02 21.13692 -86.08064 19729 ft 363 kts 142°
2026-05-06 01:02 21.11653 -86.06459 19360 ft 363 kts 142°
2026-05-06 01:02 21.09634 -86.04871 19037 ft 360 kts 142°
2026-05-06 01:03 21.07618 -86.03287 18735 ft 357 kts 142°
2026-05-06 01:03 21.05625 -86.01721 18417 ft 355 kts 142°
2026-05-06 01:03 21.03636 -86.00159 18086 ft 353 kts 142°
2026-05-06 01:03 21.01665 -85.98611 17719 ft 351 kts 142°
2026-05-06 01:04 20.99708 -85.97075 17382 ft 348 kts 142°
2026-05-06 01:04 20.97761 -85.95547 17050 ft 345 kts 142°
2026-05-06 01:04 20.95836 -85.94037 16889 ft 342 kts 142°
2026-05-06 01:04 20.93937 -85.92548 16899 ft 344 kts 142°
2026-05-06 01:05 20.92004 -85.91032 16904 ft 344 kts 142°
2026-05-06 01:05 20.90075 -85.89520 16898 ft 344 kts 142°
2026-05-06 01:05 20.88142 -85.88006 16904 ft 344 kts 142°
2026-05-06 01:05 20.86206 -85.86489 16901 ft 344 kts 142°
2026-05-06 01:06 20.84274 -85.84976 16905 ft 344 kts 142°
2026-05-06 01:06 20.82338 -85.83461 16902 ft 344 kts 142°
2026-05-06 01:06 20.80405 -85.81949 16902 ft 345 kts 142°
2026-05-06 01:06 20.78467 -85.80433 16906 ft 344 kts 142°
2026-05-06 01:07 20.76534 -85.78921 16901 ft 344 kts 142°
2026-05-06 01:07 20.74599 -85.77409 16904 ft 344 kts 142°
2026-05-06 01:07 20.72673 -85.75904 16897 ft 343 kts 142°
2026-05-06 01:07 20.70747 -85.74399 16892 ft 343 kts 142°
2026-05-06 01:08 20.68822 -85.72896 16902 ft 343 kts 142°
2026-05-06 01:08 20.66899 -85.71394 16895 ft 343 kts 142°
2026-05-06 01:08 20.64976 -85.69894 16903 ft 343 kts 142°
2026-05-06 01:08 20.63049 -85.68391 16893 ft 343 kts 142°
2026-05-06 01:09 20.61124 -85.66889 16903 ft 343 kts 142°
2026-05-06 01:09 20.59194 -85.65385 16904 ft 343 kts 142°
2026-05-06 01:09 20.57268 -85.63883 16900 ft 343 kts 142°
2026-05-06 01:09 20.55357 -85.62394 16888 ft 336 kts 142°
2026-05-06 01:10 20.53507 -85.60954 16906 ft 322 kts 142°
2026-05-06 01:10 20.51741 -85.59578 16895 ft 308 kts 142°
2026-05-06 01:10 20.50036 -85.58251 16908 ft 300 kts 142°
2026-05-06 01:10 20.48373 -85.56957 16902 ft 299 kts 142°
2026-05-06 01:11 20.46693 -85.55649 16894 ft 299 kts 142°
2026-05-06 01:11 20.44988 -85.54323 16905 ft 299 kts 142°
2026-05-06 01:11 20.43330 -85.53033 16902 ft 299 kts 142°
2026-05-06 01:11 20.41644 -85.51722 16904 ft 299 kts 142°
2026-05-06 01:12 20.39964 -85.50416 16907 ft 298 kts 142°
2026-05-06 01:12 20.38290 -85.49115 16897 ft 297 kts 142°
2026-05-06 01:12 20.36618 -85.47817 16904 ft 297 kts 142°
2026-05-06 01:12 20.34949 -85.46520 16903 ft 297 kts 142°
2026-05-06 01:13 20.33271 -85.45228 16891 ft 297 kts 145°
2026-05-06 01:13 20.31376 -85.44369 16859 ft 297 kts 170°
2026-05-06 01:13 20.29320 -85.44388 16883 ft 298 kts 193°
2026-05-06 01:13 20.27388 -85.45173 16857 ft 296 kts 212°
2026-05-06 01:14 20.24757 -85.48403 16108 ft 290 kts 251°
2026-05-06 01:14 20.24303 -85.50420 15977 ft 283 kts 269°
2026-05-06 01:14 20.24415 -85.52509 16000 ft 282 kts 284°
2026-05-06 01:15 20.25055 -85.54472 16005 ft 280 kts 300°
2026-05-06 01:15 20.26107 -85.56207 16012 ft 279 kts 308°
2026-05-06 01:15 20.27105 -85.57978 15966 ft 281 kts 291°
2026-05-06 01:15 20.27674 -85.59972 16022 ft 282 kts 290°
2026-05-06 01:16 20.28302 -85.61959 16001 ft 283 kts 291°
2026-05-06 01:16 20.28940 -85.63934 15997 ft 282 kts 291°
2026-05-06 01:16 20.29588 -85.65912 16000 ft 282 kts 291°
2026-05-06 01:16 20.30239 -85.67886 15997 ft 283 kts 291°
2026-05-06 01:17 20.30894 -85.69863 16002 ft 282 kts 292°
2026-05-06 01:17 20.31549 -85.71837 16001 ft 282 kts 292°
2026-05-06 01:17 20.32205 -85.73809 16003 ft 282 kts 292°
2026-05-06 01:17 20.32859 -85.75779 15998 ft 283 kts 292°
2026-05-06 01:18 20.33515 -85.77754 16001 ft 282 kts 292°
2026-05-06 01:18 20.34172 -85.79732 16003 ft 282 kts 292°
2026-05-06 01:18 20.34819 -85.81680 16002 ft 282 kts 292°
2026-05-06 01:18 20.35473 -85.83652 16003 ft 282 kts 292°
2026-05-06 01:19 20.36129 -85.85627 16008 ft 282 kts 292°
2026-05-06 01:19 20.36782 -85.87596 16005 ft 282 kts 292°
2026-05-06 01:19 20.37435 -85.89567 16007 ft 282 kts 292°
2026-05-06 01:19 20.38089 -85.91541 16003 ft 282 kts 292°
2026-05-06 01:20 20.38743 -85.93516 15998 ft 282 kts 292°
2026-05-06 01:20 20.39396 -85.95489 16000 ft 282 kts 292°
2026-05-06 01:20 20.40050 -85.97466 15999 ft 282 kts 292°
2026-05-06 01:20 20.40702 -85.99439 15995 ft 282 kts 292°
2026-05-06 01:21 20.41355 -86.01413 16001 ft 282 kts 292°
2026-05-06 01:21 20.42009 -86.03391 15998 ft 282 kts 292°
2026-05-06 01:21 20.42661 -86.05369 16001 ft 283 kts 292°
2026-05-06 01:21 20.43312 -86.07343 16003 ft 282 kts 292°
2026-05-06 01:22 20.43961 -86.09312 16004 ft 282 kts 291°
2026-05-06 01:22 20.44603 -86.11260 15996 ft 282 kts 291°
2026-05-06 01:22 20.45253 -86.13231 16005 ft 282 kts 292°
2026-05-06 01:22 20.45901 -86.15202 16004 ft 282 kts 291°
2026-05-06 01:23 20.46554 -86.17183 16008 ft 286 kts 291°
2026-05-06 01:23 20.47234 -86.19248 15979 ft 302 kts 291°
2026-05-06 01:23 20.47927 -86.21359 15606 ft 304 kts 291°
2026-05-06 01:23 20.48640 -86.23528 14978 ft 315 kts 291°
2026-05-06 01:24 20.49374 -86.25764 14404 ft 323 kts 291°
2026-05-06 01:24 20.50120 -86.28037 13963 ft 326 kts 290°
2026-05-06 01:24 20.50870 -86.30326 13537 ft 327 kts 290°
2026-05-06 01:24 20.51620 -86.32612 13173 ft 325 kts 291°
2026-05-06 01:25 20.52362 -86.34880 12834 ft 323 kts 291°
2026-05-06 01:25 20.53098 -86.37127 12503 ft 320 kts 291°
2026-05-06 01:25 20.53831 -86.39370 12175 ft 318 kts 291°
2026-05-06 01:25 20.54555 -86.41582 12034 ft 315 kts 291°
2026-05-06 01:26 20.55279 -86.43797 12005 ft 317 kts 291°
2026-05-06 01:26 20.56005 -86.46018 12004 ft 318 kts 290°
2026-05-06 01:26 20.56723 -86.48219 12003 ft 318 kts 290°
2026-05-06 01:26 20.57452 -86.50454 12002 ft 318 kts 290°
2026-05-06 01:27 20.58174 -86.52665 11765 ft 316 kts 291°
2026-05-06 01:27 20.58893 -86.54872 11446 ft 314 kts 290°
2026-05-06 01:27 20.59609 -86.57067 11103 ft 312 kts 291°
2026-05-06 01:27 20.60317 -86.59241 10813 ft 309 kts 291°
2026-05-06 01:28 20.61022 -86.61407 10464 ft 308 kts 290°
2026-05-06 01:28 20.61806 -86.63513 9958 ft 303 kts 303°
2026-05-06 01:28 20.63248 -86.65100 9547 ft 297 kts 329°
2026-05-06 01:28 20.65140 -86.65945 9156 ft 295 kts 344°
2026-05-06 01:29 20.67101 -86.66549 9064 ft 293 kts 345°
2026-05-06 01:29 20.69080 -86.67145 9003 ft 298 kts 345°
2026-05-06 01:29 20.71076 -86.67736 8991 ft 297 kts 345°
2026-05-06 01:29 20.73068 -86.68318 8993 ft 297 kts 346°
2026-05-06 01:30 20.75065 -86.68897 8999 ft 298 kts 345°
2026-05-06 01:30 20.77068 -86.69475 9002 ft 297 kts 346°
2026-05-06 01:30 20.79060 -86.70049 8995 ft 297 kts 345°
2026-05-06 01:30 20.80380 -86.70430 8995 ft 298 kts 345°
2026-05-06 01:31 20.82318 -86.71146 8846 ft 295 kts 330°
2026-05-06 01:31 20.83786 -86.72666 8509 ft 296 kts 304°
2026-05-06 01:31 20.84889 -86.74525 8188 ft 294 kts 304°
2026-05-06 01:31 20.86000 -86.76327 8026 ft 287 kts 305°
2026-05-06 01:32 20.87103 -86.78102 7680 ft 287 kts 304°
2026-05-06 01:32 20.88208 -86.79870 7349 ft 286 kts 305°
2026-05-06 01:32 20.89316 -86.81640 7040 ft 285 kts 305°
2026-05-06 01:32 20.90415 -86.83393 6630 ft 283 kts 305°
2026-05-06 01:33 20.91510 -86.85138 6083 ft 284 kts 306°
2026-05-06 01:33 20.92615 -86.86900 5521 ft 285 kts 305°
2026-05-06 01:33 20.93715 -86.88656 5045 ft 283 kts 304°
2026-05-06 01:33 20.94818 -86.90416 4514 ft 287 kts 304°
2026-05-06 01:34 20.95925 -86.92186 4221 ft 285 kts 304°
2026-05-06 01:34 20.97023 -86.93942 4006 ft 281 kts 304°
2026-05-06 01:34 20.98116 -86.95687 4009 ft 282 kts 304°
2026-05-06 01:34 20.99196 -86.97414 4003 ft 283 kts 304°
2026-05-06 01:35 21.00304 -86.99184 3997 ft 283 kts 304°
2026-05-06 01:35 21.01380 -87.00904 3997 ft 282 kts 304°
2026-05-06 01:35 21.02473 -87.02652 3966 ft 280 kts 304°
2026-05-06 01:35 21.03545 -87.04384 3732 ft 277 kts 303°
2026-05-06 01:36 21.04588 -87.06074 3647 ft 267 kts 303°
2026-05-06 01:36 21.05594 -87.07697 3553 ft 257 kts 303°
2026-05-06 01:36 21.06567 -87.09257 3458 ft 247 kts 303°
2026-05-06 01:36 21.07502 -87.10756 3353 ft 237 kts 303°
2026-05-06 01:37 21.08402 -87.12192 3212 ft 229 kts 303°
2026-05-06 01:37 21.09290 -87.13596 3001 ft 227 kts 303°
2026-05-06 01:37 21.10181 -87.15004 2948 ft 229 kts 306°
2026-05-06 01:37 21.11398 -87.16060 2904 ft 226 kts 343°
2026-05-06 01:38 21.12910 -87.16150 2941 ft 216 kts 21°
2026-05-06 01:38 21.14309 -87.15552 3030 ft 219 kts 24°
2026-05-06 01:38 21.15761 -87.15022 3014 ft 220 kts 24°
2026-05-06 01:38 21.17162 -87.14400 2990 ft 217 kts 28°
2026-05-06 01:39 21.18540 -87.13724 2972 ft 218 kts 29°
2026-05-06 01:39 21.19752 -87.12816 2992 ft 207 kts 49°
2026-05-06 01:39 21.20535 -87.11600 2984 ft 193 kts 78°
2026-05-06 01:39 21.20409 -87.10269 2876 ft 178 kts 121°
2026-05-06 01:40 21.19671 -87.09222 3009 ft 178 kts 132°
2026-05-06 01:40 21.18827 -87.08269 3051 ft 178 kts 133°
2026-05-06 01:40 21.17979 -87.07329 3079 ft 171 kts 133°
2026-05-06 01:40 21.17181 -87.06448 3024 ft 161 kts 135°
2026-05-06 01:41 21.16422 -87.05590 2985 ft 158 kts 127°
2026-05-06 01:41 21.15809 -87.04616 2991 ft 158 kts 123°
2026-05-06 01:41 21.15201 -87.03634 2997 ft 159 kts 124°
2026-05-06 01:41 21.14804 -87.03001 2959 ft 159 kts 124°
2026-05-06 01:42 21.14596 -87.02670 2931 ft 158 kts 124°
2026-05-06 01:42 21.13986 -87.01707 2754 ft 154 kts 125°
2026-05-06 01:42 21.13386 -87.00765 2654 ft 151 kts 125°
2026-05-06 01:43 21.12819 -86.99879 2546 ft 140 kts 125°
2026-05-06 01:43 21.12266 -86.99018 2340 ft 139 kts 125°
2026-05-06 01:43 21.11809 -86.98174 2258 ft 124 kts 120°
2026-05-06 01:43 21.11346 -86.97377 1891 ft 124 kts 121°
2026-05-06 01:44 21.11064 -86.96566 1833 ft 123 kts 102°
2026-05-06 01:44 21.10631 -86.95749 1512 ft 131 kts 129°
2026-05-06 01:44 21.10024 -86.95014 1400 ft 133 kts 127°
2026-05-06 01:44 21.09462 -86.94308 1247 ft 113 kts 131°
2026-05-06 01:45 21.08946 -86.93675 769 ft 115 kts 128°
2026-05-06 01:45 21.08822 -86.93509 660 ft 0 kts 123°
2026-05-06 01:45 21.08577 -86.93154 614 ft 0 kts 124°
2026-05-06 01:45 21.07842 -86.91767 616 ft 89 kts 127°
2026-05-06 01:46 21.07323 -86.90949 564 ft 0 kts 130°
2026-05-06 01:46 21.06678 -86.90226 557 ft 68 kts 114°
2026-05-06 01:46 21.05893 -86.88773 447 ft 0 kts 129°
2026-05-06 01:46 21.05611 -86.88328 272 ft 0 kts 125°
2026-05-06 01:47 21.05346 -86.87931 45 ft 73 kts 129°
2026-05-06 01:47 21.05125 -86.87630 27 ft 58 kts 132°